Total_Precipitation_Accumulation
1.98 2.10 2.20 2.14 2.09 2.10 2.25 2.44 2.64 2.59 2.17 1.80 1.70 1.63 1.61 1.60 1.71 1.45 1.46 1.56 1.47 1.38 1.33 1.33 1.44 1.53 1.61 1.64 1.74 1.89 2.06 2.08 2.05 2.17 2.40 2.66 2.97 3.24
1.77 1.87 1.91 1.88 1.90 1.86 1.91 2.02 2.23 2.41 2.24 1.70 1.53 1.49 1.56 1.42 1.50 1.30 1.36 1.40 1.28 1.20 1.12 1.08 1.10 1.24 1.31 1.30 1.36 1.47 1.66 1.70 1.68 1.68 1.80 2.05 2.33 2.63
1.54 1.54 1.60 1.67 1.79 1.69 1.72 1.80 1.93 2.12 2.19 1.78 1.57 1.54 1.60 1.60 1.57 1.49 1.34 1.22 1.15 1.17 1.06 1.02 0.99 1.03 1.12 1.13 1.15 1.20 1.36 1.46 1.48 1.46 1.47 1.60 1.79 2.00
1.43 1.44 1.43 1.52 1.65 1.66 1.67 1.66 1.76 1.90 2.00 1.93 1.72 1.60 1.57 1.57 1.57 1.56 1.30 1.08 1.04 1.15 1.07 1.00 1.00 0.98 1.01 1.06 1.06 1.06 1.05 1.18 1.23 1.18 1.15 1.23 1.42 1.63
1.39 1.38 1.34 1.46 1.51 1.51 1.53 1.53 1.58 1.62 1.74 1.71 1.53 1.49 1.44 1.43 1.59 1.57 1.45 1.40 1.02 0.97 0.99 0.92 0.96 0.95 0.92 0.94 0.96 0.97 0.92 0.93 0.99 1.01 1.03 1.07 1.19 1.35
1.26 1.27 1.30 1.29 1.30 1.37 1.38 1.47 1.57 1.68 1.72 1.67 1.51 1.39 1.41 1.43 1.68 1.75 1.67 1.49 1.25 0.92 0.95 0.90 0.90 0.87 0.86 0.90 0.86 0.87 0.90 0.91 0.97 1.03 1.05 1.02 1.04 1.07
1.26 1.22 1.16 1.16 1.16 1.20 1.16 1.26 1.44 1.62 1.68 1.71 1.60 1.48 1.48 1.65 1.66 1.57 1.56 1.45 1.28 1.04 1.04 0.96 0.97 1.12 1.31 1.37 1.16 0.93 0.91 0.95 1.02 1.05 1.11 1.06 1.01 0.99
1.25 1.19 1.10 1.03 0.97 0.97 0.94 1.00 1.20 1.41 1.59 1.74 1.68 1.60 1.54 1.65 1.74 1.66 1.69 1.72 1.56 1.20 1.22 1.13 1.12 1.49 1.87 2.05 1.64 1.08 0.95 0.96 1.02 1.06 1.10 1.08 0.99 0.93
1.27 1.24 1.04 0.89 1.00 0.97 0.96 0.94 0.98 1.08 1.34 1.65 1.79 1.66 1.62 1.73 1.88 1.84 1.84 1.84 1.71 1.42 1.49 1.45 1.37 1.65 1.66 1.75 1.70 1.27 1.14 1.09 1.06 1.09 1.11 1.09 1.04 0.94
1.14 1.16 1.24 1.22 1.09 1.05 0.98 1.00 1.06 1.11 1.16 1.25 1.49 1.54 1.44 1.52 1.72 1.76 1.79 1.76 1.67 1.60 1.66 1.71 1.53 1.61 1.49 1.80 1.98 1.79 1.57 1.41 1.28 1.23 1.20 1.12 1.07 1.04
0.93 0.98 1.08 1.15 1.08 0.99 0.98 1.09 1.17 1.19 1.06 1.14 1.21 1.35 1.43 1.38 1.41 1.54 1.78 1.94 1.90 1.67 1.61 1.71 1.66 1.70 1.78 2.07 2.07 2.04 1.90 1.69 1.50 1.34 1.26 1.17 1.10 1.12
0.98 1.01 0.97 0.93 0.97 0.91 0.94 1.15 1.25 1.23 1.29 1.44 1.58 1.67 1.61 1.53 1.39 1.48 1.79 2.02 2.02 1.92 1.64 1.78 1.91 2.07 2.34 2.36 2.23 2.03 1.97 1.91 1.72 1.56 1.42 1.26 1.14 1.09
1.00 1.04 0.96 0.85 0.83 0.82 0.88 1.04 1.21 1.31 1.59 1.87 1.92 1.80 1.69 1.61 1.52 1.47 1.63 1.85 2.02 2.02 1.73 1.95 2.16 2.36 2.59 2.48 2.27 2.11 1.99 1.94 1.91 1.91 1.84 1.58 1.31 1.16
1.04 1.00 0.91 0.84 0.74 0.75 0.82 1.00 1.15 1.39 1.75 2.00 1.88 1.64 1.49 1.41 1.37 1.38 1.47 1.58 1.75 1.79 1.76 1.98 2.32 2.50 2.58 2.43 2.26 2.08 2.03 2.09 2.09 2.12 2.10 1.95 1.65 1.49
0.92 0.96 0.90 0.86 0.82 0.93 1.03 1.16 1.29 1.51 1.79 1.82 1.64 1.50 1.42 1.37 1.32 1.36 1.38 1.43 1.41 1.37 1.35 1.60 2.02 2.30 2.49 2.46 2.28 2.07 2.10 2.32 2.38 2.39 2.30 2.13 1.92 1.72
0.80 0.96 1.05 1.07 1.08 1.18 1.29 1.39 1.47 1.56 1.61 1.55 1.45 1.42 1.36 1.35 1.32 1.33 1.39 1.40 1.46 1.44 1.35 1.42 1.68 2.00 2.21 2.16 2.18 2.16 2.11 2.50 2.67 2.59 2.52 2.50 2.29 2.03
0.80 0.98 1.16 1.23 1.30 1.37 1.40 1.46 1.51 1.47 1.43 1.39 1.40 1.38 1.34 1.34 1.36 1.37 1.46 1.41 1.39 1.38 1.45 1.49 1.59 1.72 1.75 1.84 1.96 2.06 2.18 2.38 2.54 2.56 2.59 2.70 2.57 2.27
0.88 1.10 1.29 1.34 1.37 1.41 1.42 1.46 1.48 1.39 1.32 1.33 1.37 1.37 1.37 1.37 1.40 1.47 1.54 1.50 1.47 1.39 1.40 1.41 1.54 1.72 1.74 1.72 1.83 2.04 2.13 2.34 2.44 2.45 2.33 2.39 2.49 2.26
0.86 1.08 1.30 1.45 1.47 1.38 1.34 1.37 1.43 1.43 1.40 1.39 1.40 1.41 1.38 1.36 1.41 1.48 1.51 1.46 1.42 1.40 1.36 1.31 1.36 1.57 1.74 1.89 1.94 2.11 2.25 2.32 2.26 2.24 2.17 2.02 2.19 2.19
0.91 1.09 1.23 1.30 1.33 1.34 1.28 1.28 1.31 1.37 1.43 1.42 1.39 1.42 1.43 1.41 1.39 1.44 1.45 1.37 1.32 1.34 1.37 1.36 1.36 1.41 1.58 1.76 2.05 2.23 2.18 2.02 1.94 2.02 1.95 1.83 1.97 2.07
0.96 1.05 1.13 1.16 1.15 1.17 1.14 1.13 1.16 1.22 1.24 1.26 1.28 1.33 1.37 1.39 1.37 1.34 1.34 1.27 1.28 1.34 1.43 1.45 1.43 1.41 1.38 1.48 1.75 1.96 1.98 1.95 1.78 1.67 1.63 1.64 1.67 1.70
0.95 1.01 1.03 1.01 1.01 1.03 1.01 0.99 1.00 1.01 0.99 1.02 1.05 1.10 1.16 1.21 1.20 1.15 1.14 1.17 1.25 1.27 1.28 1.29 1.30 1.35 1.39 1.48 1.62 1.77 1.79 1.62 1.56 1.59 1.55 1.40 1.31 1.44
0.95 0.92 0.96 0.97 0.96 0.98 0.97 0.93 0.91 0.90 0.88 0.89 0.93 1.01 1.05 1.07 1.02 0.99 0.99 1.00 1.08 1.10 1.13 1.20 1.24 1.31 1.33 1.32 1.36 1.42 1.41 1.35 1.27 1.29 1.46 1.48 1.28 1.29